Time,TemperatureF,DewpointF,PressureIn,WindDirection,WindDirectionDegrees,WindSpeedMPH,WindSpeedGustMPH,Humidity,HourlyPrecipIn,Conditions,Clouds,dailyrainin,SoftwareType,DateUTC
2013-01-23 00:02:00,36.0,32.0,29.68,ESE,102,4.0,13.0,85,0.02,,,0.29,,2013-01-23 00:02:00,
2013-01-23 00:12:00,36.0,32.0,29.68,ESE,102,4.0,13.0,85,0.02,,,0.29,,2013-01-23 00:12:00,
2013-01-23 00:22:00,36.0,32.0,29.68,ESE,102,4.0,13.0,85,0.02,,,0.29,,2013-01-23 00:22:00,
2013-01-23 00:33:00,36.0,32.0,29.68,East,97,2.0,7.0,86,0.01,,,0.29,,2013-01-23 00:33:00,
2013-01-23 00:42:00,36.0,32.0,29.68,East,97,2.0,7.0,86,0.01,,,0.29,,2013-01-23 00:42:00,
2013-01-23 00:52:00,36.0,32.0,29.68,East,98,3.0,8.0,86,0.02,,,0.30,,2013-01-23 00:52:00,
2013-01-23 01:02:00,35.0,32.0,29.68,ESE,103,2.0,7.0,87,0.01,,,0.30,,2013-01-23 01:02:00,
2013-01-23 01:13:00,35.0,32.0,29.68,ESE,103,2.0,7.0,87,0.01,,,0.30,,2013-01-23 01:13:00,
2013-01-23 01:22:00,35.0,32.0,29.68,ESE,103,2.0,7.0,87,0.01,,,0.30,,2013-01-23 01:22:00,
2013-01-23 01:32:00,35.0,32.0,29.69,East,82,3.0,10.0,87,0.01,,,0.30,,2013-01-23 01:32:00,
2013-01-23 01:42:00,35.0,32.0,29.69,East,82,3.0,10.0,87,0.01,,,0.30,,2013-01-23 01:42:00,
2013-01-23 01:53:00,35.0,32.0,29.69,East,85,2.0,8.0,88,0.01,,,0.31,,2013-01-23 01:53:00,
2013-01-23 02:03:00,35.0,32.0,29.69,East,85,2.0,8.0,88,0.01,,,0.31,,2013-01-23 02:03:00,
2013-01-23 02:12:00,35.0,32.0,29.69,East,85,2.0,8.0,88,0.01,,,0.31,,2013-01-23 02:12:00,
2013-01-23 02:22:00,35.0,32.0,29.69,East,85,3.0,10.0,87,0.01,,,0.31,,2013-01-23 02:22:00,
2013-01-23 02:32:00,35.0,32.0,29.70,East,85,2.0,8.0,87,0.01,,,0.31,,2013-01-23 02:32:00,
2013-01-23 02:42:00,35.0,32.0,29.70,East,85,2.0,8.0,87,0.01,,,0.31,,2013-01-23 02:42:00,
2013-01-23 02:52:00,35.0,32.0,29.70,East,85,2.0,8.0,87,0.00,,,0.31,,2013-01-23 02:52:00,
2013-01-23 03:02:00,35.0,32.0,29.70,East,85,2.0,8.0,87,0.00,,,0.31,,2013-01-23 03:02:00,
2013-01-23 03:12:00,35.0,32.0,29.70,East,85,2.0,8.0,87,0.00,,,0.31,,2013-01-23 03:12:00,
2013-01-23 03:22:00,35.0,32.0,29.70,East,89,1.0,8.0,87,0.00,,,0.31,,2013-01-23 03:22:00,
2013-01-23 03:32:00,35.0,32.0,29.70,East,87,2.0,7.0,88,0.00,,,0.31,,2013-01-23 03:32:00,
2013-01-23 03:42:00,35.0,32.0,29.70,East,87,2.0,7.0,88,0.00,,,0.31,,2013-01-23 03:42:00,
2013-01-23 03:52:00,35.0,32.0,29.70,East,87,2.0,7.0,88,0.00,,,0.31,,2013-01-23 03:52:00,
2013-01-23 04:02:00,35.0,32.0,29.71,East,92,1.0,7.0,88,0.00,,,0.31,,2013-01-23 04:02:00,
2013-01-23 04:12:00,35.0,32.0,29.71,East,92,1.0,7.0,88,0.00,,,0.31,,2013-01-23 04:12:00,
2013-01-23 04:22:00,34.0,31.0,29.71,East,80,2.0,8.0,88,0.00,,,0.31,,2013-01-23 04:22:00,
2013-01-23 04:32:00,34.0,31.0,29.70,East,82,2.0,8.0,88,0.00,,,0.31,,2013-01-23 04:32:00,
2013-01-23 04:43:00,34.0,31.0,29.70,East,82,2.0,8.0,88,0.00,,,0.31,,2013-01-23 04:43:00,
2013-01-23 04:52:00,34.0,31.0,29.70,East,82,2.0,8.0,88,0.00,,,0.31,,2013-01-23 04:52:00,
2013-01-23 05:03:00,34.0,31.0,29.71,East,85,2.0,8.0,88,0.00,,,0.31,,2013-01-23 05:03:00,
2013-01-23 05:12:00,34.0,31.0,29.71,East,85,2.0,8.0,88,0.00,,,0.31,,2013-01-23 05:12:00,
2013-01-23 05:22:00,34.0,31.0,29.71,East,83,2.0,6.0,88,0.00,,,0.31,,2013-01-23 05:22:00,
2013-01-23 05:33:00,34.0,31.0,29.71,East,83,2.0,6.0,88,0.00,,,0.31,,2013-01-23 05:33:00,
2013-01-23 05:42:00,34.0,31.0,29.71,East,83,2.0,6.0,88,0.00,,,0.31,,2013-01-23 05:42:00,
2013-01-23 05:52:00,34.0,31.0,29.71,East,87,1.0,7.0,89,0.00,,,0.31,,2013-01-23 05:52:00,
2013-01-23 06:02:00,34.0,31.0,29.71,East,92,2.0,7.0,88,0.00,,,0.31,,2013-01-23 06:02:00,
2013-01-23 06:12:00,34.0,31.0,29.71,East,92,2.0,7.0,88,0.00,,,0.31,,2013-01-23 06:12:00,
2013-01-23 06:22:00,34.0,31.0,29.71,East,92,2.0,7.0,88,0.00,,,0.31,,2013-01-23 06:22:00,
2013-01-23 06:32:00,34.0,31.0,29.71,East,92,2.0,7.0,88,0.00,,,0.31,,2013-01-23 06:32:00,
2013-01-23 06:53:00,33.0,30.0,29.72,East,82,1.0,6.0,89,0.01,,,0.32,,2013-01-23 06:53:00,
2013-01-23 07:02:00,33.0,30.0,29.72,ENE,77,2.0,6.0,89,0.01,,,0.32,,2013-01-23 07:02:00,
2013-01-23 07:12:00,33.0,30.0,29.72,ENE,77,2.0,6.0,89,0.01,,,0.32,,2013-01-23 07:12:00,
2013-01-23 07:22:00,33.0,30.0,29.72,ENE,77,2.0,6.0,89,0.01,,,0.32,,2013-01-23 07:22:00,
2013-01-23 07:33:00,33.0,30.0,29.73,East,89,1.0,7.0,89,0.00,,,0.32,,2013-01-23 07:33:00,
2013-01-23 07:42:00,33.0,30.0,29.73,East,89,1.0,7.0,89,0.00,,,0.32,,2013-01-23 07:42:00,
2013-01-23 07:53:00,33.0,30.0,29.73,East,84,1.0,4.0,89,0.00,,,0.32,,2013-01-23 07:53:00,
2013-01-23 08:02:00,34.0,31.0,29.74,ENE,73,1.0,6.0,89,0.00,,,0.32,,2013-01-23 08:02:00,
2013-01-23 08:12:00,34.0,31.0,29.74,ENE,73,1.0,6.0,89,0.00,,,0.32,,2013-01-23 08:12:00,
2013-01-23 08:22:00,34.0,31.0,29.74,ENE,73,1.0,6.0,89,0.00,,,0.32,,2013-01-23 08:22:00,
2013-01-23 08:32:00,34.0,31.0,29.75,East,96,1.0,6.0,89,0.00,,,0.32,,2013-01-23 08:32:00,
2013-01-23 08:42:00,34.0,31.0,29.75,East,96,1.0,6.0,89,0.00,,,0.32,,2013-01-23 08:42:00,
2013-01-23 08:53:00,34.0,31.0,29.75,East,88,1.0,3.0,89,0.00,,,0.32,,2013-01-23 08:53:00,
2013-01-23 09:02:00,34.0,31.0,29.75,East,88,1.0,3.0,89,0.00,,,0.32,,2013-01-23 09:02:00,
2013-01-23 09:12:00,34.0,31.0,29.75,East,88,1.0,3.0,89,0.00,,,0.32,,2013-01-23 09:12:00,
2013-01-23 09:22:00,33.0,30.0,29.75,East,85,1.0,5.0,89,0.00,,,0.32,,2013-01-23 09:22:00,
2013-01-23 09:32:00,33.0,30.0,29.76,ENE,77,1.0,5.0,89,0.00,,,0.32,,2013-01-23 09:32:00,
2013-01-23 09:43:00,33.0,30.0,29.76,ENE,77,1.0,5.0,89,0.00,,,0.32,,2013-01-23 09:43:00,
2013-01-23 09:52:00,33.0,30.0,29.76,East,81,2.0,7.0,88,0.00,,,0.32,,2013-01-23 09:52:00,
2013-01-23 10:02:00,33.0,30.0,29.76,East,81,2.0,7.0,88,0.00,,,0.32,,2013-01-23 10:02:00,
2013-01-23 10:12:00,33.0,30.0,29.76,East,81,2.0,7.0,88,0.00,,,0.32,,2013-01-23 10:12:00,
2013-01-23 10:22:00,34.0,31.0,29.76,East,80,1.0,4.0,88,0.00,,,0.32,,2013-01-23 10:22:00,
2013-01-23 10:32:00,34.0,31.0,29.77,East,99,1.0,6.0,88,0.00,,,0.32,,2013-01-23 10:32:00,
2013-01-23 10:42:00,34.0,31.0,29.77,East,99,1.0,6.0,88,0.00,,,0.32,,2013-01-23 10:42:00,
2013-01-23 10:52:00,34.0,31.0,29.77,East,99,1.0,6.0,88,0.00,,,0.32,,2013-01-23 10:52:00,
2013-01-23 11:02:00,34.0,31.0,29.77,East,85,1.0,5.0,88,0.00,,,0.32,,2013-01-23 11:02:00,
2013-01-23 11:11:00,34.0,31.0,29.77,East,85,1.0,5.0,88,0.00,,,0.32,,2013-01-23 11:11:00,
2013-01-23 11:22:00,34.0,31.0,29.76,ENE,76,1.0,5.0,87,0.00,,,0.32,,2013-01-23 11:22:00,
2013-01-23 11:32:00,34.0,31.0,29.77,East,92,1.0,4.0,87,0.00,,,0.32,,2013-01-23 11:32:00,
2013-01-23 11:42:00,34.0,31.0,29.77,East,92,1.0,4.0,87,0.00,,,0.32,,2013-01-23 11:42:00,
2013-01-23 11:52:00,34.0,31.0,29.77,East,92,1.0,4.0,87,0.00,,,0.32,,2013-01-23 11:52:00,
2013-01-23 12:02:00,34.0,31.0,29.76,East,100,1.0,6.0,87,0.00,,,0.32,,2013-01-23 12:02:00,
2013-01-23 12:12:00,34.0,31.0,29.76,East,100,1.0,6.0,87,0.00,,,0.32,,2013-01-23 12:12:00,
2013-01-23 12:22:00,34.0,31.0,29.77,East,93,1.0,8.0,87,0.00,,,0.32,,2013-01-23 12:22:00,
2013-01-23 12:33:00,34.0,31.0,29.77,East,93,1.0,8.0,87,0.00,,,0.32,,2013-01-23 12:33:00,
2013-01-23 12:42:00,34.0,31.0,29.75,ENE,78,1.0,6.0,88,0.00,,,0.32,,2013-01-23 12:42:00,
2013-01-23 12:43:00,34.0,31.0,29.77,East,93,1.0,8.0,87,0.00,,,0.32,,2013-01-23 12:43:00,
2013-01-23 12:53:00,34.0,31.0,29.76,ENE,77,1.0,4.0,87,0.00,,,0.32,,2013-01-23 12:53:00,
2013-01-23 13:03:00,34.0,31.0,29.75,ENE,78,1.0,6.0,88,0.00,,,0.32,,2013-01-23 13:03:00,
2013-01-23 13:12:00,34.0,31.0,29.75,ENE,78,1.0,6.0,88,0.00,,,0.32,,2013-01-23 13:12:00,
2013-01-23 13:22:00,34.0,31.0,29.75,ENE,78,1.0,6.0,88,0.00,,,0.32,,2013-01-23 13:22:00,
2013-01-23 13:33:00,34.0,31.0,29.75,ENE,78,1.0,6.0,88,0.00,,,0.32,,2013-01-23 13:33:00,
2013-01-23 13:53:00,34.0,32.0,29.75,East,95,1.0,8.0,91,0.01,,,0.31,,2013-01-23 13:53:00,
2013-01-23 14:02:00,34.0,32.0,29.75,East,99,3.0,7.0,92,0.01,,,0.28,,2013-01-23 14:02:00,
2013-01-23 14:12:00,34.0,32.0,29.75,East,99,3.0,7.0,92,0.01,,,0.28,,2013-01-23 14:12:00,
2013-01-23 14:23:00,34.0,32.0,29.75,East,99,3.0,7.0,92,0.01,,,0.28,,2013-01-23 14:23:00,
2013-01-23 14:33:00,34.0,32.0,29.75,East,82,2.0,5.0,92,0.02,,,0.27,,2013-01-23 14:33:00,
2013-01-23 14:42:00,34.0,32.0,29.75,East,82,2.0,5.0,92,0.02,,,0.27,,2013-01-23 14:42:00,
2013-01-23 14:53:00,34.0,32.0,29.74,East,81,2.0,7.0,93,0.01,,,0.24,,2013-01-23 14:53:00,
2013-01-23 15:02:00,34.0,32.0,29.74,East,81,2.0,7.0,93,0.01,,,0.24,,2013-01-23 15:02:00,
2013-01-23 15:12:00,34.0,32.0,29.74,East,81,2.0,7.0,93,0.01,,,0.24,,2013-01-23 15:12:00,
2013-01-23 15:22:00,34.0,32.0,29.74,East,93,1.0,5.0,93,0.00,,,0.22,,2013-01-23 15:22:00,
2013-01-23 15:32:00,35.0,33.0,29.75,ESE,104,1.0,6.0,92,0.00,,,0.20,,2013-01-23 15:32:00,
2013-01-23 15:43:00,35.0,33.0,29.75,ESE,104,1.0,6.0,92,0.00,,,0.20,,2013-01-23 15:43:00,
2013-01-23 15:52:00,35.0,33.0,29.75,ESE,104,1.0,6.0,92,0.00,,,0.20,,2013-01-23 15:52:00,
2013-01-23 16:02:00,35.0,33.0,29.75,ESE,104,1.0,6.0,92,0.00,,,0.20,,2013-01-23 16:02:00,
2013-01-23 16:11:00,35.0,33.0,29.75,ESE,104,1.0,6.0,92,0.00,,,0.20,,2013-01-23 16:11:00,
2013-01-23 16:23:00,35.0,32.0,29.75,East,97,2.0,8.0,88,0.00,,,0.18,,2013-01-23 16:23:00,
2013-01-23 16:32:00,35.0,32.0,29.74,East,100,3.0,11.0,88,0.00,,,0.17,,2013-01-23 16:32:00,
2013-01-23 16:42:00,35.0,32.0,29.74,East,100,3.0,11.0,88,0.00,,,0.17,,2013-01-23 16:42:00,
2013-01-23 16:52:00,35.0,32.0,29.74,East,100,3.0,11.0,88,0.00,,,0.17,,2013-01-23 16:52:00,
2013-01-23 17:02:00,35.0,32.0,29.75,East,100,5.0,13.0,87,0.00,,,0.17,,2013-01-23 17:02:00,
2013-01-23 17:11:00,35.0,32.0,29.75,East,100,5.0,13.0,87,0.00,,,0.17,,2013-01-23 17:11:00,
2013-01-23 17:22:00,35.0,32.0,29.75,East,101,3.0,7.0,88,0.00,,,0.16,,2013-01-23 17:22:00,
2013-01-23 17:33:00,35.0,32.0,29.75,East,101,3.0,7.0,88,0.00,,,0.16,,2013-01-23 17:33:00,
2013-01-23 17:42:00,35.0,32.0,29.75,East,101,3.0,7.0,88,0.00,,,0.16,,2013-01-23 17:42:00,
2013-01-23 17:52:00,35.0,32.0,29.75,East,101,3.0,7.0,88,0.00,,,0.16,,2013-01-23 17:52:00,
2013-01-23 18:23:00,34.0,32.0,29.75,East,100,2.0,7.0,93,0.01,,,0.16,,2013-01-23 18:23:00,
2013-01-23 18:33:00,34.0,32.0,29.75,East,100,2.0,7.0,93,0.01,,,0.16,,2013-01-23 18:33:00,
2013-01-23 18:43:00,34.0,32.0,29.75,East,99,4.0,9.0,92,0.01,,,0.15,,2013-01-23 18:43:00,
2013-01-23 18:52:00,34.0,32.0,29.75,East,98,3.0,7.0,92,0.01,,,0.15,,2013-01-23 18:52:00,
2013-01-23 19:02:00,34.0,32.0,29.75,East,98,3.0,7.0,92,0.01,,,0.15,,2013-01-23 19:02:00,
2013-01-23 19:12:00,34.0,32.0,29.75,East,98,3.0,7.0,92,0.01,,,0.15,,2013-01-23 19:12:00,
2013-01-23 19:22:00,34.0,32.0,29.76,East,100,2.0,9.0,92,0.00,,,0.15,,2013-01-23 19:22:00,
2013-01-23 19:32:00,34.0,32.0,29.76,East,99,2.0,6.0,92,0.00,,,0.14,,2013-01-23 19:32:00,
2013-01-23 19:42:00,34.0,32.0,29.76,East,99,2.0,6.0,92,0.00,,,0.14,,2013-01-23 19:42:00,
2013-01-23 19:52:00,34.0,32.0,29.76,East,99,2.0,6.0,92,0.00,,,0.14,,2013-01-23 19:52:00,
2013-01-23 20:02:00,34.0,32.0,29.76,East,95,2.0,7.0,91,0.01,,,0.14,,2013-01-23 20:02:00,
2013-01-23 20:12:00,34.0,32.0,29.76,East,95,2.0,7.0,91,0.01,,,0.14,,2013-01-23 20:12:00,
2013-01-23 20:22:00,35.0,33.0,29.76,East,98,2.0,7.0,91,0.01,,,0.14,,2013-01-23 20:22:00,
2013-01-23 20:32:00,35.0,33.0,29.76,East,98,2.0,7.0,91,0.01,,,0.14,,2013-01-23 20:32:00,
2013-01-23 20:42:00,35.0,33.0,29.76,East,98,2.0,7.0,91,0.01,,,0.14,,2013-01-23 20:42:00,
2013-01-23 20:53:00,35.0,33.0,29.76,East,98,2.0,7.0,91,0.01,,,0.14,,2013-01-23 20:53:00,
2013-01-23 21:02:00,35.0,32.0,29.77,East,96,4.0,10.0,87,0.00,,,0.12,,2013-01-23 21:02:00,
2013-01-23 21:12:00,35.0,32.0,29.77,East,96,4.0,10.0,87,0.00,,,0.12,,2013-01-23 21:12:00,
2013-01-23 21:22:00,35.0,31.0,29.77,East,96,4.0,12.0,86,0.00,,,0.12,,2013-01-23 21:22:00,
2013-01-23 21:33:00,35.0,31.0,29.77,East,96,4.0,12.0,86,0.00,,,0.12,,2013-01-23 21:33:00,
2013-01-23 21:42:00,35.0,32.0,29.78,East,101,3.0,9.0,87,0.00,,,0.10,,2013-01-23 21:42:00,
2013-01-23 21:43:00,35.0,31.0,29.77,East,96,4.0,12.0,86,0.00,,,0.12,,2013-01-23 21:43:00,
2013-01-23 21:53:00,35.0,31.0,29.77,East,96,3.0,6.0,86,0.00,,,0.11,,2013-01-23 21:53:00,
2013-01-23 22:02:00,35.0,32.0,29.78,East,101,3.0,9.0,87,0.00,,,0.10,,2013-01-23 22:02:00,
2013-01-23 22:12:00,35.0,32.0,29.78,East,101,3.0,9.0,87,0.00,,,0.10,,2013-01-23 22:12:00,
2013-01-23 22:22:00,35.0,32.0,29.78,East,101,3.0,9.0,87,0.00,,,0.10,,2013-01-23 22:22:00,
2013-01-23 22:33:00,35.0,32.0,29.78,East,101,3.0,9.0,87,0.00,,,0.10,,2013-01-23 22:33:00,
2013-01-23 22:53:00,35.0,31.0,29.78,East,97,3.0,11.0,86,0.00,,,0.09,,2013-01-23 22:53:00,
2013-01-23 23:02:00,35.0,31.0,29.79,East,94,5.0,13.0,85,0.00,,,0.09,,2013-01-23 23:02:00,
2013-01-23 23:12:00,35.0,31.0,29.79,East,94,5.0,13.0,85,0.00,,,0.09,,2013-01-23 23:12:00,
2013-01-23 23:22:00,35.0,31.0,29.79,East,94,5.0,13.0,85,0.00,,,0.09,,2013-01-23 23:22:00,
2013-01-23 23:33:00,35.0,31.0,29.79,East,94,4.0,15.0,86,0.00,,,0.08,,2013-01-23 23:33:00,
2013-01-23 23:42:00,35.0,31.0,29.79,East,94,4.0,15.0,86,0.00,,,0.08,,2013-01-23 23:42:00,
2013-01-23 23:53:00,35.0,31.0,29.79,ESE,103,5.0,13.0,85,0.00,,,0.08,,2013-01-23 23:53:00,